Del Bajio, Mexico

12:56 AM CDT on July 27, 2017 (GMT -0500)
De Guanajuato International

Weather History for MMLO - October, 2013

Change the Weather History Date:

Sunday, October 20, 2013

  Actual Average Record
Temperature  
Mean Temperature 68 °F -  
Max Temperature 80 °F 79 °F 91 °F (2005)
Min Temperature 57 °F 51 °F 42 °F (1997)
Cooling Degree Days 4    
Growing Degree Days 18 (Base 50)    
Moisture  
Dew Point 57 °F    
Average Humidity 74    
Maximum Humidity 100    
Minimum Humidity 39    
Precipitation  
Precipitation 0.00 in - - ()
Sea Level Pressure  
Sea Level Pressure 30.04 in    
Wind  
Wind Speed 2 mph ()    
Max Wind Speed 8 mph    
Max Gust Speed -    
Visibility 7.9 miles    
Events      
Averages and records for this station are not official NWS values.
T = Trace of Precipitation, MM = Missing Value Source: Averaged Metar Reports

Daily Weather History Graph

Daily Weather History Graph

Search for Another Location

Airport or City:

Trip Planner

Search our weather history database for the weather conditions in past years. The results will help you decide how hot, cold, wet, or windy it might be!

Date:

Astronomy

Oct. 20, 2013 Rise Set
Actual Time 7:43 AM CDT 7:17 PM CDT
Civil Twilight 7:20 AM CDT 7:40 PM CDT
Nautical Twilight 6:54 AM CDT 8:06 PM CDT
Astronomical Twilight 6:29 AM CDT 8:31 PM CDT
Moon 8:42 PM CDT (10/20) 9:10 AM CDT (10/20)
Length of Visible Light 12h 19m
Length of Day
11h 34m
Full, 97% of the Moon is Illuminated
Oct 20
Full
Oct 26
Last Quarter
Nov 3
New
Nov 9
First Quarter
Nov 17
Full

Hourly Weather History & Observations

Time (CDT) Temp. Heat Index Dew Point Humidity Pressure Visibility Wind Dir Wind Speed Gust Speed Precip Events Conditions
12:41 AM 59.0 °F - 57.2 °F 94% 29.88 in 8.0 mi SE 3.5 mph - N/A   Overcast
2:44 AM 59.0 °F - 57.2 °F 94% 30.24 in 8.0 mi Calm Calm - N/A   Overcast
3:44 AM 57.2 °F - 55.4 °F 94% 29.73 in 8.0 mi Calm Calm - N/A   Overcast
5:40 AM 57.2 °F - 55.4 °F 94% 30.24 in 8.0 mi Calm Calm - N/A   Overcast
6:52 AM 57.2 °F - 57.2 °F 100% 29.78 in 7.0 mi East 3.5 mph - N/A   Overcast
7:43 AM 57.2 °F - 57.2 °F 100% 30.24 in 6.0 mi Calm Calm - N/A   Overcast
8:48 AM 59.0 °F - 57.2 °F 94% 30.24 in 6.0 mi SSE 4.6 mph - N/A   Mostly Cloudy
9:48 AM 60.8 °F - 57.2 °F 88% 29.96 in 4.0 mi ESE 3.5 mph - N/A   Overcast
10:46 AM 68.0 °F - 57.2 °F 68% 30.24 in 5.0 mi Calm Calm - N/A   Overcast
11:50 AM 69.8 °F - 57.2 °F 64% 30.24 in 6.0 mi SE 4.6 mph - N/A   Overcast
12:48 PM 73.4 °F - 59.0 °F 61% 29.80 in 8.0 mi ESE 6.9 mph - N/A   Mostly Cloudy
1:55 PM 80.6 °F 80.5 °F 55.4 °F 42% 30.15 in 10.0 mi South 6.9 mph - N/A   Mostly Cloudy
2:43 PM 80.6 °F 80.5 °F 55.4 °F 42% 30.12 in 10.0 mi South 8.1 mph - N/A   Mostly Cloudy
3:42 PM 80.6 °F 80.3 °F 53.6 °F 39% 29.69 in 10.0 mi Calm Calm - N/A   Mostly Cloudy
4:41 PM 75.2 °F - 55.4 °F 50% 30.09 in 10.0 mi Calm Calm - N/A   Mostly Cloudy
5:42 PM 75.2 °F - 55.4 °F 50% 30.09 in 10.0 mi SSE 4.6 mph - N/A   Mostly Cloudy
6:40 PM 71.6 °F - 57.2 °F 60% 29.73 in 10.0 mi ENE 5.8 mph - N/A   Overcast
7:55 PM 66.2 °F - 55.4 °F 68% 30.12 in 8.0 mi SE 5.8 mph - N/A   Overcast
8:41 PM 64.4 °F - 57.2 °F 77% 30.12 in 8.0 mi East 3.5 mph - N/A   Overcast
9:41 PM 62.6 °F - 57.2 °F 82% 29.86 in 8.0 mi Calm Calm - N/A   Overcast
10:50 PM 62.6 °F - 57.2 °F 82% 30.15 in 8.0 mi Calm Calm - N/A   Overcast
11:48 PM 62.6 °F - 59.0 °F 88% 30.17 in 8.0 mi Calm Calm - N/A   Overcast